ASA3 KLAS-KLAX

Flight info

Callsign ASA3
Flight time N/A
Altitude 28000
Route RADYR2 BLAQQ SHTNR ANJLL4
Aircraft B738/M-SDE2E3FGHIRWXY/LB1

Departure

Time 2026-05-07 00:18
Airport Harry Reid International Airport (KLAS)

Arrival

Time N/A
Airport Los Angeles International Airport (KLAX)
Time Latitude Longitude Altitude Speed Heading
2026-05-06 23:45 36.08039 -115.13472 2115 ft 0 kts 272°
2026-05-07 00:09 36.08038 -115.13455 2114 ft 4 kts 268°
2026-05-07 00:09 36.08041 -115.13422 2114 ft 4 kts 256°
2026-05-07 00:09 36.08050 -115.13392 2114 ft 4 kts 232°
2026-05-07 00:10 36.08067 -115.13375 2113 ft 2 kts 181°
2026-05-07 00:10 36.08073 -115.13375 2115 ft 1 kts 180°
2026-05-07 00:14 36.08059 -115.13375 2112 ft 7 kts 180°
2026-05-07 00:14 36.07979 -115.13375 2117 ft 16 kts 180°
2026-05-07 00:14 36.07859 -115.13374 2128 ft 18 kts 180°
2026-05-07 00:14 36.07763 -115.13331 2127 ft 21 kts 109°
2026-05-07 00:15 36.07755 -115.13098 2122 ft 33 kts 89°
2026-05-07 00:15 36.07756 -115.12808 2119 ft 38 kts 90°
2026-05-07 00:15 36.07756 -115.12480 2119 ft 38 kts 90°
2026-05-07 00:15 36.07756 -115.12263 2119 ft 24 kts 90°
2026-05-07 00:16 36.07745 -115.12152 2121 ft 0 kts 123°
2026-05-07 00:17 36.07741 -115.12146 2123 ft 4 kts 134°
2026-05-07 00:17 36.07691 -115.12127 2123 ft 12 kts 182°
2026-05-07 00:17 36.07642 -115.12234 2123 ft 23 kts 268°
2026-05-07 00:18 36.07641 -115.12638 2123 ft 79 kts 270°
2026-05-07 00:18 36.07638 -115.13599 2125 ft 142 kts 269°
2026-05-07 00:18 36.07620 -115.15049 2172 ft 190 kts 269°
2026-05-07 00:18 36.07608 -115.16647 3016 ft 183 kts 270°
2026-05-07 00:19 36.07608 -115.18181 3907 ft 176 kts 271°
2026-05-07 00:19 36.07609 -115.19774 4348 ft 200 kts 271°
2026-05-07 00:19 36.07549 -115.21614 4577 ft 228 kts 263°
2026-05-07 00:19 36.07272 -115.23628 4881 ft 251 kts 257°
2026-05-07 00:20 36.06477 -115.25551 5544 ft 258 kts 227°
2026-05-07 00:20 36.04954 -115.26835 5969 ft 277 kts 202°
2026-05-07 00:20 36.03113 -115.27669 6585 ft 286 kts 200°
2026-05-07 00:20 36.01233 -115.28507 7319 ft 289 kts 200°
2026-05-07 00:21 35.99322 -115.29362 7804 ft 295 kts 200°
2026-05-07 00:21 35.97318 -115.30020 8398 ft 301 kts 193°
2026-05-07 00:21 35.95252 -115.30516 9183 ft 304 kts 191°
2026-05-07 00:21 35.93152 -115.30990 9888 ft 310 kts 191°
2026-05-07 00:22 35.91031 -115.31473 10411 ft 322 kts 191°
2026-05-07 00:22 35.88737 -115.32007 10547 ft 347 kts 192°
2026-05-07 00:22 35.86295 -115.32588 10725 ft 369 kts 191°
2026-05-07 00:22 35.83714 -115.33210 11029 ft 382 kts 191°
2026-05-07 00:23 35.81120 -115.33841 11857 ft 381 kts 191°
2026-05-07 00:23 35.78500 -115.34481 12430 ft 388 kts 190°
2026-05-07 00:23 35.75832 -115.35134 13017 ft 394 kts 190°
2026-05-07 00:23 35.73129 -115.35796 13681 ft 398 kts 190°
2026-05-07 00:24 35.70400 -115.36464 14310 ft 402 kts 190°
2026-05-07 00:24 35.67676 -115.37131 14930 ft 406 kts 190°
2026-05-07 00:24 35.64896 -115.37811 15586 ft 410 kts 190°
2026-05-07 00:24 35.62087 -115.38496 16235 ft 414 kts 189°
2026-05-07 00:25 35.59218 -115.38878 16803 ft 416 kts 176°
2026-05-07 00:25 35.56330 -115.38627 17500 ft 417 kts 172°
2026-05-07 00:25 35.53429 -115.38309 18123 ft 421 kts 173°
2026-05-07 00:25 35.51487 -115.38127 18469 ft 425 kts 173°
2026-05-07 00:26 35.47513 -115.37823 19158 ft 430 kts 174°
2026-05-07 00:26 35.44504 -115.37864 19681 ft 437 kts 188°
2026-05-07 00:26 35.41609 -115.39021 20329 ft 439 kts 205°
2026-05-07 00:26 35.38927 -115.40710 20965 ft 440 kts 208°
2026-05-07 00:27 35.36231 -115.42498 21602 ft 441 kts 208°
2026-05-07 00:27 35.33539 -115.44291 22333 ft 439 kts 208°
2026-05-07 00:27 35.30859 -115.46055 23122 ft 436 kts 207°
2026-05-07 00:27 35.28197 -115.47783 23782 ft 432 kts 207°
2026-05-07 00:28 35.25531 -115.49495 23976 ft 432 kts 207°
2026-05-07 00:28 35.22872 -115.51192 23992 ft 431 kts 207°
2026-05-07 00:28 35.20224 -115.52879 23988 ft 427 kts 207°
2026-05-07 00:28 35.17631 -115.54531 24001 ft 426 kts 207°
2026-05-07 00:29 35.14997 -115.56208 24008 ft 427 kts 207°
2026-05-07 00:29 35.12397 -115.57978 23980 ft 429 kts 215°
2026-05-07 00:30 35.06202 -115.65774 23989 ft 428 kts 227°
2026-05-07 00:30 35.04166 -115.68416 23996 ft 427 kts 227°
2026-05-07 00:30 35.02120 -115.71047 23981 ft 427 kts 227°
2026-05-07 00:30 35.00101 -115.73628 23985 ft 426 kts 227°
2026-05-07 00:31 34.98054 -115.76236 23996 ft 425 kts 227°
2026-05-07 00:31 34.96008 -115.78839 23982 ft 425 kts 227°
2026-05-07 00:31 34.93967 -115.81431 23981 ft 424 kts 227°
2026-05-07 00:31 34.91926 -115.84023 23978 ft 424 kts 227°
2026-05-07 00:32 34.89886 -115.86613 23981 ft 423 kts 227°
2026-05-07 00:32 34.87845 -115.89202 23972 ft 423 kts 227°
2026-05-07 00:32 34.86495 -115.90913 23975 ft 423 kts 227°
2026-05-07 00:32 34.84456 -115.93497 23976 ft 424 kts 227°
2026-05-07 00:33 34.81751 -115.96924 23965 ft 424 kts 227°
2026-05-07 00:33 34.79701 -115.99518 23983 ft 425 kts 227°
2026-05-07 00:33 34.77649 -116.02111 23976 ft 426 kts 227°
2026-05-07 00:33 34.75593 -116.04716 23970 ft 427 kts 227°
2026-05-07 00:34 34.73543 -116.07327 23973 ft 428 kts 227°
2026-05-07 00:34 34.72183 -116.09060 23956 ft 428 kts 227°
2026-05-07 00:34 34.70128 -116.11681 23982 ft 428 kts 227°
2026-05-07 00:34 34.68072 -116.14299 23967 ft 429 kts 227°
2026-05-07 00:35 34.65346 -116.17767 23975 ft 428 kts 227°
2026-05-07 00:35 34.63286 -116.20384 23976 ft 428 kts 227°
2026-05-07 00:35 34.61227 -116.22997 23959 ft 428 kts 227°
2026-05-07 00:35 34.59170 -116.25606 23984 ft 427 kts 227°
2026-05-07 00:36 34.57114 -116.28211 23969 ft 428 kts 227°
2026-05-07 00:36 34.55752 -116.29936 23966 ft 428 kts 227°
2026-05-07 00:36 34.53695 -116.32539 23987 ft 427 kts 227°
2026-05-07 00:36 34.51635 -116.35144 23969 ft 428 kts 227°
2026-05-07 00:37 34.48912 -116.38586 23993 ft 427 kts 227°
2026-05-07 00:37 34.46858 -116.41180 23993 ft 427 kts 227°
2026-05-07 00:37 34.45466 -116.42937 23984 ft 427 kts 227°
2026-05-07 00:37 34.42740 -116.46373 23995 ft 427 kts 227°
2026-05-07 00:38 34.41452 -116.48175 23947 ft 427 kts 237°
2026-05-07 00:38 34.40073 -116.51325 24072 ft 420 kts 247°
2026-05-07 00:38 34.38825 -116.54523 24065 ft 422 kts 247°
2026-05-07 00:38 34.37546 -116.57735 24001 ft 425 kts 246°
2026-05-07 00:39 34.36241 -116.60940 24010 ft 421 kts 246°
2026-05-07 00:39 34.34945 -116.64081 23788 ft 415 kts 246°
2026-05-07 00:39 34.33662 -116.67181 23552 ft 409 kts 246°
2026-05-07 00:39 34.32409 -116.70241 23272 ft 404 kts 246°
2026-05-07 00:40 34.31185 -116.73280 23015 ft 400 kts 247°
2026-05-07 00:40 34.29990 -116.76263 22759 ft 398 kts 247°
2026-05-07 00:40 34.28787 -116.79266 22494 ft 395 kts 247°
2026-05-07 00:40 34.27592 -116.82244 22227 ft 393 kts 247°
2026-05-07 00:41 34.26401 -116.85202 21945 ft 390 kts 246°
2026-05-07 00:41 34.25217 -116.88140 21540 ft 388 kts 246°
2026-05-07 00:41 34.24033 -116.91073 21086 ft 388 kts 246°
2026-05-07 00:41 34.22847 -116.94009 20634 ft 389 kts 246°
2026-05-07 00:42 34.21655 -116.96954 20145 ft 391 kts 246°
2026-05-07 00:42 34.20537 -116.99945 19604 ft 392 kts 252°
2026-05-07 00:42 34.19673 -117.03080 19040 ft 393 kts 256°
2026-05-07 00:42 34.18901 -117.06227 18591 ft 390 kts 256°
2026-05-07 00:43 34.18123 -117.09310 18207 ft 387 kts 256°
2026-05-07 00:43 34.17304 -117.12408 17586 ft 387 kts 255°
2026-05-07 00:43 34.16473 -117.15472 17176 ft 383 kts 255°
2026-05-07 00:43 34.15630 -117.18541 16629 ft 384 kts 254°
2026-05-07 00:44 34.14791 -117.21578 16238 ft 381 kts 253°
2026-05-07 00:44 34.13954 -117.24611 15801 ft 379 kts 254°
2026-05-07 00:44 34.13122 -117.27628 15422 ft 376 kts 254°
2026-05-07 00:44 34.12325 -117.30511 15687 ft 345 kts 254°
2026-05-07 00:45 34.11593 -117.33153 15724 ft 324 kts 254°
2026-05-07 00:45 34.10905 -117.35641 15620 ft 309 kts 254°
2026-05-07 00:45 34.10253 -117.38047 15517 ft 295 kts 256°
2026-05-07 00:45 34.09669 -117.40382 15252 ft 292 kts 256°
2026-05-07 00:46 34.09073 -117.42819 14317 ft 317 kts 256°
2026-05-07 00:46 34.08416 -117.45482 13351 ft 341 kts 256°
2026-05-07 00:46 34.07728 -117.48232 12928 ft 342 kts 255°
2026-05-07 00:46 34.07040 -117.50957 12673 ft 338 kts 255°
2026-05-07 00:47 34.06351 -117.53654 12353 ft 335 kts 255°
2026-05-07 00:47 34.05664 -117.56335 12008 ft 334 kts 255°
2026-05-07 00:47 34.04981 -117.58999 11695 ft 331 kts 255°
2026-05-07 00:47 34.04314 -117.61605 11396 ft 328 kts 255°
2026-05-07 00:48 34.03644 -117.64224 11105 ft 325 kts 255°
2026-05-07 00:48 34.02983 -117.66800 10984 ft 316 kts 255°
2026-05-07 00:48 34.02543 -117.69333 10892 ft 304 kts 269°
2026-05-07 00:48 34.02400 -117.71831 10797 ft 295 kts 268°
2026-05-07 00:49 34.02166 -117.74283 10541 ft 295 kts 265°
2026-05-07 00:49 34.01882 -117.76727 10279 ft 294 kts 265°
2026-05-07 00:49 34.01614 -117.79173 9927 ft 296 kts 266°
2026-05-07 00:49 34.01354 -117.81625 9535 ft 292 kts 266°
2026-05-07 00:50 34.01102 -117.83975 9162 ft 281 kts 266°
2026-05-07 00:50 34.00857 -117.86250 8811 ft 266 kts 266°
2026-05-07 00:50 34.00627 -117.88403 8447 ft 252 kts 265°
2026-05-07 00:50 34.00409 -117.90436 8200 ft 236 kts 266°
2026-05-07 00:51 34.00206 -117.92298 8079 ft 213 kts 266°
2026-05-07 00:51 34.00023 -117.93993 7918 ft 195 kts 267°
2026-05-07 00:51 33.99853 -117.95590 7594 ft 191 kts 268°
2026-05-07 00:51 33.99688 -117.97170 7226 ft 189 kts 268°
2026-05-07 00:52 33.99521 -117.98769 6724 ft 196 kts 266°
2026-05-07 00:52 33.99354 -118.00346 6482 ft 188 kts 266°
2026-05-07 00:52 33.99192 -118.01859 6244 ft 182 kts 266°
2026-05-07 00:52 33.99033 -118.03373 6001 ft 181 kts 265°
2026-05-07 00:53 33.98875 -118.04875 5766 ft 180 kts 265°
2026-05-07 00:53 33.98718 -118.06376 5513 ft 180 kts 265°
2026-05-07 00:53 33.98563 -118.07852 5274 ft 176 kts 264°